{"data":{"norad_id":67634,"intl_designator":"2026-020T","name":"STARLINK-36617","alt_names":[],"object_type":"PAYLOAD","status":"ACTIVE","operator":null,"country":"US","launch_date":"2026-01-30","launch_site_code":"AFETR","launch_vehicle":null,"mission":null,"orbit_class":"UNKNOWN","rcs_meters":null,"size_class":null,"mass_kg":null,"dimensions":null,"purposes":["comms"],"wikipedia_slug":null,"has_3d_model":false,"image_url":null,"decayed_at":null,"tle_current":{"epoch":"2026-05-25T03:51:53.900928Z","epoch_age_seconds":57269,"freshness":"FRESH","line1":"1 67634U 26020T   26145.16104052  .00024789  00000+0  90698-3 0  9997","line2":"2 67634  43.0033  68.3646 0001212 270.3684  89.7029 15.27592013 17806","mean_motion":15.27592013,"eccentricity":0.0001212,"inclination_deg":43.0033,"raan_deg":68.3646,"arg_perigee_deg":270.3684,"mean_anomaly_deg":89.7029,"bstar":0.00090698,"rev_number":1780,"period_min":94.266007398927,"perigee_km":482.18155363658,"apogee_km":483.84469642688,"semimajor_km":6861.1501250317,"source":"CELESTRAK","updated_at":"2026-05-25T13:38:21.652874Z"}}}